STARLINK-11435, 62891

Orbit data source: Space-Track

STARLINK-11435, 62891 is a payload satellite owned by SpaceX/Seattle (US) in LEO that was launched on Tue, 04 Feb 2025 UTC via an FALCON 9 launch vehicle from the Air Force Eastern Test Range (AFETR). Payload-class satellites include a variety of spacecraft equipped with specific instruments for various scientific and technological missions. These include communications satellites like Starlink; space stations such as the ISS; scientific satellites like the Hubble; Earth observation satellites from companies like Planet Labs, Umbra, and HawkEye 360; GPS; miniature CubeSats for education and research; and military/defense satellites.

Loading next visibility...
Identifier
62891, 2025-024N
Orbit
LEO
Country
Flag of USUS
Related business
Manufacturer
SpaceX/Seattle
Mission
Operational Commercial Communications
Bus & Motor
STARLINK V2MD, Unknown motor
Mass
960 kg wet, ~910 kg dry
Launch date (UTC)
2025-02-04 (9 months ago)
Launch vehicle
FALCON 9
Launch site
Air Force Eastern Test Range (AFETR)
Object type
Payload
Rocket body
Debris
Shape & HBR
Box + 2 Pan, 18.1 m
Radar Cross Section
36.964 m², Large (>1 m²)

Expand to show TLE details & history
Last TLE update: 9 hours ago

TLE from 9 hours ago
0 STARLINK-11435
1 62891U 25024N   25303.28804207  .00402741  00000-0  29774-2 0  9992
2 62891  42.9995 247.8440 0001688 304.7775  55.2933 15.70961507 42959
Epoch: 2025-10-30T06:54Z
TLE epoch observation values (Epoch: 2025-10-30T06:54:46.834Z)
Latitude
-0.00008°
Longitude
105.29979°
Altitude
355.272 km
Speed
7.698 km/s
True Right ascension
16h 31m 22s
True Declination
0° 00' 00"
Sunlit
Object was in daylight at epoch
Visualization orbit readout
Latitude
Unknown
Longitude
Unknown
Altitude
Unknown
Speed
Unknown
Apparent Right ascension
Unknown
Apparent Declination
Unknown
Sunlit
N/A
Visualization observer readout
Local Sidereal Time
11:31:20
Azimuth
Unknown
Elevation
Unknown
Doppler factor
Unknown
Orbital elements
Apogee altitude
359.267 km
Perigee altitude
356.992 km
Semi-major axis
6,736.267 km
Eccentricity
0.00017
Inclination
42.9995°
RAAN
247.844°
Arg. of periapsis
304.7775°
True anomaly
55.3092°
Mean anomaly
55.2933°
Eccentric anomaly
55.30125°
Mean motion
3.92567 °/min
Orbital period
91.7 mins
BSTAR
0.0029774
Loading maneuver chart data...
Computing Atmospheric mass density...
Loading historical data...
Loading historical data...
Loading historical data...
Loading historical data...
Loading historical data...
Loading historical data...
Loading historical data...

Documentation

Showing up to 5 results
|